Theta_e
313 313 313 313 313 314 315 315 315 314 314 314 314 314 315 315 314 303 300 308 311 318 319 305 308 307 303 304 311 313 301 297 300 301 303 309 305 310 317 314 316 320 319 321 327
313 313 314 314 314 314 314 315 315 315 314 314 314 314 315 315 307 300 310 314 315 319 308 300 298 303 299 299 306 305 301 301 306 306 304 307 306 306 311 312 312 318 321 326 326
314 314 315 315 315 315 315 315 315 315 314 313 314 314 315 313 299 296 312 313 315 316 305 302 302 302 298 296 296 303 301 305 307 309 309 308 308 311 308 307 311 312 318 322 323
315 316 316 315 315 315 315 315 315 315 313 313 314 314 316 307 282 299 316 313 317 308 303 300 300 298 295 292 297 290 295 300 305 308 306 305 308 307 308 308 314 318 321 321 321
316 315 315 315 315 315 315 314 314 313 313 313 314 315 308 291 291 301 314 309 305 303 300 298 297 296 292 294 295 293 295 297 298 299 301 306 304 305 306 310 312 316 321 320 320
315 315 314 314 314 314 314 314 313 312 312 313 314 313 296 286 300 303 303 303 301 300 298 300 298 298 293 293 293 294 293 294 297 297 298 300 302 304 305 310 311 311 316 319 320
314 314 313 313 314 314 313 313 312 311 313 313 313 308 293 291 300 302 303 301 302 301 296 302 303 298 296 291 295 293 289 291 292 295 295 298 296 299 305 308 308 309 310 318 321
314 314 313 313 313 313 312 311 311 310 312 311 313 303 288 300 300 302 302 301 304 303 301 303 305 300 296 296 293 289 288 282 289 293 295 295 288 298 302 303 303 307 309 310 320
315 315 314 313 313 311 311 311 311 310 311 311 300 296 287 305 298 301 300 299 302 301 303 305 302 296 294 287 283 285 279 282 284 290 289 289 286 294 299 300 301 304 307 309 311
314 314 314 313 311 311 313 312 309 306 306 305 301 290 294 292 298 300 301 301 298 298 298 296 292 287 285 283 275 279 280 283 282 286 289 287 286 289 292 294 294 296 299 303 309
314 314 313 312 310 310 307 298 292 292 294 290 291 292 294 297 300 298 301 298 297 293 285 289 284 280 282 285 286 284 283 282 286 290 287 286 286 288 290 291 291 294 296 299 305
314 313 312 310 309 310 301 294 295 295 289 294 293 294 296 296 291 294 300 291 290 285 288 284 279 286 289 288 286 285 283 281 286 289 288 286 285 289 291 291 291 292 294 297 301
313 313 310 309 309 302 297 297 304 301 289 289 292 292 292 294 290 291 296 292 288 286 285 280 284 289 288 286 285 285 283 283 283 287 288 285 281 283 287 289 291 292 294 298 300
313 312 309 309 301 297 295 302 304 300 277 283 288 292 294 293 288 297 297 293 289 285 285 283 289 288 286 285 286 281 287 287 285 282 272 285 274 282 285 286 288 290 292 294 298
312 310 307 307 297 295 299 303 300 295 267 285 286 296 293 289 290 291 296 292 286 285 285 281 285 285 284 285 289 284 289 287 286 282 281 281 276 278 285 284 286 288 291 293 295
310 308 307 303 298 299 302 301 294 277 267 276 287 286 285 288 288 291 291 294 291 286 286 285 290 287 287 290 289 290 286 284 284 281 270 278 276 276 280 285 288 292 289 293 296
308 307 304 302 295 301 299 292 275 269 279 274 278 284 282 282 285 286 285 283 279 272 274 280 283 287 290 283 286 285 278 267 266 272 267 281 278 280 286 290 292 291 293 294 297
307 305 301 300 299 298 293 280 269 267 266 282 282 282 279 282 282 283 281 278 284 279 273 272 270 283 286 283 280 282 279 272 266 266 271 281 272 280 291 293 294 294 293 294 294
307 297 296 296 299 296 284 270 271 270 276 278 279 270 269 280 280 280 278 279 284 283 271 272 275 284 285 287 286 280 280 285 279 271 274 275 280 286 291 291 292 292 292 291 292
296 294 293 297 297 291 278 275 272 284 284 282 270 270 264 267 275 276 276 282 283 286 285 279 272 281 284 286 288 285 288 278 277 271 266 271 275 279 286 288 291 288 289 290 291
294 288 294 296 294 283 272 271 277 286 287 280 271 269 269 269 274 270 272 281 285 284 285 281 278 278 281 280 279 280 279 282 282 280 274 273 275 289 288 290 287 288 289 289 290
291 278 294 295 278 281 272 276 286 284 287 285 283 279 271 272 268 274 275 280 286 284 274 283 280 274 276 283 285 285 283 281 276 275 277 278 277 289 288 289 288 287 288 288 289
287 284 294 293 272 272 277 281 284 284 283 284 281 283 281 272 268 272 278 285 286 283 278 280 271 267 272 279 284 281 282 282 282 280 277 273 276 289 287 287 287 287 287 286 288
288 280 285 288 283 279 273 275 278 286 284 285 283 284 280 273 279 272 278 282 285 284 288 286 278 271 270 275 278 276 279 281 280 276 275 277 277 281 284 283 285 286 286 287 288
290 281 284 278 278 281 281 280 279 276 283 284 280 282 279 269 273 270 277 280 283 285 284 282 267 272 275 277 279 278 279 281 281 281 276 278 277 281 283 283 284 285 286 286 286
287 283 283 283 282 282 282 279 279 277 280 279 278 281 281 273 276 269 275 277 277 280 279 280 271 276 274 279 281 278 281 284 283 281 281 281 279 286 285 286 284 284 284 283 284
290 289 288 284 283 280 280 278 281 282 281 283 281 281 280 281 281 282 283 282 281 277 279 278 277 272 266 276 277 273 280 281 282 285 283 277 281 285 283 284 283 282 283 283 283
Wind_Speed
7 9 10 10 11 12 13 14 14 15 15 16 17 18 20 20 14 9 10 7 11 18 19 12 9 8 3 4 3 3 2 7 7 8 7 11 5 4 3 3 2 2 4 5 17
8 8 9 10 11 12 13 13 14 15 16 17 17 18 17 16 3 9 9 17 19 20 9 9 10 9 5 4 3 5 4 6 5 5 6 9 7 7 4 5 3 5 5 12 14
8 9 10 11 12 12 13 14 14 15 17 17 18 18 17 9 3 5 13 18 19 19 6 6 6 4 3 3 4 5 10 6 10 12 12 10 13 7 5 5 6 7 12 14 11
9 10 12 12 13 13 13 14 15 16 18 18 18 19 19 2 4 5 11 15 17 14 11 8 8 5 4 4 6 7 10 8 6 10 10 9 5 10 7 6 4 7 19 12 14
9 10 11 12 13 13 14 14 15 16 17 18 17 18 7 6 2 8 10 11 7 9 10 9 9 6 4 6 10 3 7 13 13 12 12 11 6 7 15 9 8 2 18 17 13
9 10 11 12 13 13 14 14 15 16 16 14 14 15 2 8 6 7 8 8 6 6 7 7 5 7 5 5 4 9 10 11 10 12 10 10 13 5 2 9 11 5 9 12 17
9 10 10 12 12 13 14 15 15 14 11 11 11 5 4 3 4 7 8 5 5 5 4 3 4 5 7 7 7 8 8 11 7 6 6 10 18 23 10 10 15 14 8 11 16
8 9 10 11 12 14 15 16 15 11 10 10 9 3 2 2 3 8 6 4 8 5 4 6 4 3 3 6 6 4 3 4 7 7 7 8 18 5 13 19 22 17 15 9 16
7 8 9 10 12 14 17 15 12 10 9 11 4 3 3 6 9 9 5 8 9 6 5 5 1 2 5 2 5 3 5 9 10 17 10 4 6 7 11 15 14 15 18 21 12
6 8 7 8 11 15 18 15 7 9 2 3 2 4 6 7 6 8 6 8 6 8 3 1 1 3 4 6 2 8 8 8 10 9 20 20 22 10 15 15 16 12 10 12 16
6 6 6 7 12 16 10 4 7 7 10 4 2 2 4 8 6 6 9 10 8 4 6 4 4 3 6 4 6 7 9 11 13 13 13 17 24 20 12 19 16 15 15 13 12
6 4 4 6 11 17 5 6 3 3 3 0 3 2 1 4 4 8 7 8 6 5 7 7 1 2 6 6 7 9 12 12 9 10 13 14 26 23 20 22 22 20 18 16 13
4 2 3 6 10 5 6 4 2 2 2 2 1 2 5 4 3 6 8 7 4 8 7 1 8 10 5 8 9 9 9 10 12 12 12 12 15 5 8 10 17 20 21 17 12
2 0 4 8 4 1 4 3 3 2 6 8 4 3 4 1 2 2 4 3 6 6 8 6 5 5 8 10 4 6 5 11 14 11 3 6 14 7 12 14 10 15 16 17 15
3 1 4 4 2 4 2 3 3 4 7 6 6 4 7 4 5 4 2 2 5 5 2 9 8 8 11 5 3 9 11 11 16 15 6 10 4 7 11 10 12 8 10 13 15
5 2 5 4 3 1 3 4 4 8 3 6 4 7 6 5 7 6 5 4 2 5 3 12 9 3 5 3 8 12 6 19 9 3 3 4 6 9 5 5 16 16 9 10 10
7 7 4 2 0 4 3 3 8 8 4 8 4 5 4 6 6 7 5 6 5 8 6 11 7 5 5 11 7 7 5 5 7 1 8 3 3 13 12 9 6 12 15 14 12
7 5 4 2 4 4 3 7 9 4 5 2 2 5 4 7 5 8 6 5 6 3 3 5 12 8 10 4 6 4 2 3 5 3 10 11 8 5 2 4 8 14 16 16 17
8 1 2 4 5 2 7 7 9 7 4 1 3 7 6 5 3 7 5 4 2 5 3 5 7 7 17 5 2 5 4 5 6 3 4 4 8 6 14 17 22 19 19 18 17
4 2 1 5 4 4 7 4 3 3 3 2 4 4 1 5 5 5 4 4 3 5 4 3 11 8 7 7 2 4 1 4 3 5 6 6 7 5 15 18 16 21 21 20 18
4 3 3 4 3 6 4 6 3 3 3 3 4 2 3 2 1 2 4 6 4 5 5 4 5 9 8 4 11 4 4 3 4 5 5 7 6 3 11 14 17 19 21 21 18
4 2 3 2 6 2 3 5 4 4 2 2 4 4 4 2 1 2 3 4 4 3 3 2 4 8 11 18 11 4 3 5 5 5 7 9 9 4 18 17 17 19 21 21 17
4 2 3 3 4 1 3 3 3 5 4 4 4 4 4 4 2 3 4 5 1 5 2 3 4 7 12 7 3 5 12 9 11 9 4 5 9 17 24 20 24 22 23 18 15
5 3 3 3 0 7 5 4 2 4 4 4 4 5 4 1 3 4 3 4 4 3 2 4 3 6 8 15 15 16 21 21 11 5 6 8 21 28 22 26 27 23 20 16 10
2 3 3 4 4 4 5 7 4 4 3 5 1 6 6 2 2 5 4 4 5 1 2 2 5 4 14 19 19 19 20 18 12 2 3 14 21 21 22 22 16 18 16 11 8
6 5 1 3 2 6 4 6 9 3 8 4 5 7 7 7 9 6 4 2 5 4 3 3 5 6 14 7 7 15 15 9 7 4 7 15 15 17 22 14 19 19 14 11 8
3 2 4 4 5 6 6 7 9 8 5 4 9 4 6 9 5 6 5 4 5 1 4 3 4 5 8 10 15 4 4 7 9 6 6 9 16 18 25 16 20 18 13 11 10
Wind_Direction
20 14 13 11 12 8 5 8 4 357 352 346 346 346 342 342 335 34 45 337 335 331 324 313 332 343 336 239 249 295 242 232 224 233 263 297 308 278 324 146 122 118 139 170 150
15 6 3 358 359 1 357 359 356 354 347 343 342 341 341 341 317 56 358 350 339 329 323 327 326 329 327 288 252 183 216 227 250 260 258 277 301 278 189 209 218 87 67 133 150
357 349 348 349 347 351 350 348 351 347 342 341 338 337 336 341 15 10 353 348 337 329 298 294 288 300 261 249 262 249 239 271 282 290 288 293 303 313 241 215 200 193 163 160 166
340 340 340 343 342 344 342 343 345 342 339 336 337 334 332 118 63 331 346 337 328 337 349 347 339 15 303 310 343 296 279 276 275 288 298 279 276 285 275 250 237 149 164 164 175
335 347 344 342 341 339 338 338 339 339 333 332 338 336 1 42 19 291 330 322 330 345 357 358 30 1 356 320 327 236 351 329 326 308 315 314 275 268 286 286 295 202 155 176 186
342 343 342 338 338 336 336 334 336 336 335 335 341 341 62 65 281 324 337 330 341 350 341 11 356 320 281 292 304 318 326 313 316 308 300 287 289 264 353 312 296 257 194 191 184
340 337 336 335 335 335 333 329 329 332 331 331 340 327 60 104 299 324 349 324 338 322 312 317 326 0 334 318 326 290 304 313 277 256 256 320 277 262 254 268 275 274 259 207 200
342 334 331 332 333 332 325 321 322 318 317 329 329 342 67 200 0 5 330 324 319 299 234 255 257 271 216 262 303 289 316 322 297 340 266 178 246 206 283 255 262 264 265 234 216
334 325 325 333 337 326 322 316 311 303 302 305 354 35 5 346 3 320 349 332 315 276 288 253 200 245 330 290 336 8 326 320 324 327 340 295 315 306 309 278 262 256 256 260 233
334 332 327 338 328 318 315 303 282 329 279 282 316 41 21 324 316 303 308 313 287 298 17 328 41 27 1 45 320 309 313 301 300 309 311 303 293 283 293 290 287 289 288 294 271
320 322 331 339 330 322 335 20 20 1 32 88 308 311 312 319 310 342 350 335 352 10 18 315 53 351 313 311 286 289 290 286 281 281 281 283 286 289 280 283 278 273 276 270 280
316 315 329 337 332 338 28 71 101 188 2 256 274 262 279 353 313 328 18 27 357 335 359 7 304 305 331 324 326 311 299 294 283 298 292 291 283 282 269 262 266 269 269 269 268
306 305 323 332 328 37 76 69 359 44 104 2 11 354 310 6 342 304 18 339 326 333 353 241 261 299 306 329 328 300 289 295 301 319 300 309 290 276 292 268 262 256 257 253 252
233 174 331 319 28 310 52 358 335 59 79 317 355 344 319 244 331 323 359 36 341 321 334 283 291 330 332 312 311 299 299 318 313 328 296 38 290 296 277 285 282 258 251 253 249
160 109 338 19 242 58 317 333 326 64 63 309 319 297 304 47 295 306 280 333 290 290 356 263 294 305 312 270 356 257 291 296 291 280 316 285 242 288 296 286 272 267 263 251 240
132 65 359 1 48 6 340 343 49 44 283 335 325 359 7 1 339 325 346 3 310 326 262 256 275 249 229 311 297 282 324 299 285 218 271 225 175 268 281 265 351 340 344 342 339
113 63 54 20 196 321 17 54 40 94 317 309 334 0 340 334 345 358 356 21 43 10 339 316 317 307 38 331 331 16 357 321 348 345 221 322 261 255 295 360 2 339 340 335 338
133 74 30 56 336 11 61 49 72 233 227 303 336 346 50 10 342 338 5 13 17 47 314 336 338 353 351 274 273 329 86 237 283 278 286 281 234 237 50 349 346 358 340 329 330
137 61 61 335 341 50 68 51 191 205 193 73 34 62 326 360 11 6 355 346 58 50 90 331 270 311 303 283 356 276 298 258 276 250 258 250 285 269 8 354 357 342 331 323 318
117 100 15 317 354 57 72 202 185 174 155 108 119 117 278 301 24 23 345 291 343 38 68 277 297 272 292 315 346 137 284 317 316 303 290 284 275 261 347 336 341 334 328 321 314
82 73 275 342 48 47 142 212 207 228 139 121 166 93 206 230 201 289 257 297 20 3 355 294 203 293 347 294 303 322 331 351 263 248 285 320 281 62 350 337 334 325 324 315 309
116 73 293 21 57 51 136 186 232 150 96 97 129 134 158 216 278 282 265 256 19 37 335 347 299 288 281 291 275 208 197 10 277 319 270 266 275 123 354 337 328 319 316 311 306
114 137 339 78 135 239 324 284 202 141 177 162 168 153 167 190 27 221 259 275 247 29 13 326 318 320 333 355 18 330 314 302 295 265 242 334 284 340 330 328 328 319 320 315 305
112 112 347 42 148 132 151 244 221 197 146 181 162 138 170 304 189 266 265 292 321 351 310 104 246 194 245 275 307 299 301 304 297 262 313 275 311 315 327 327 325 327 321 320 310
85 212 172 183 249 172 147 157 164 167 182 165 6 200 176 180 267 233 256 282 309 250 58 45 261 222 255 264 277 277 284 297 314 5 314 312 306 309 321 319 325 323 323 335 340
139 146 329 137 124 124 181 218 180 199 157 214 194 202 186 182 192 212 179 224 238 359 54 333 277 295 294 258 226 285 285 284 305 288 284 311 310 326 318 320 344 340 346 0 8
144 88 113 163 155 122 212 198 200 156 216 178 195 166 218 233 226 240 218 218 218 165 316 290 298 338 273 313 312 350 288 334 305 268 296 332 311 316 325 343 356 347 1 13 32